#timestamp,LO_Frequency,Hit,StdDev 
1639465215.3,286047002.2,N
1639465235.2,286047001.2,N
1639465255.0,286047000.0,N
1639465255.9,286047000.0,N
1639465275.8,286047001.6,N
1639465295.6,286047004.2,N
1639465315.4,286047004.3,N
1639465335.3,286047003.7,N
1639465355.1,286047001.9,N
1639465375.9,286047002.1,N
1639465395.7,286047001.8,N
1639465415.5,286047001.8,N
1639465435.4,286047002.2,N
1639465455.2,286047000.7,N
1639465475.1,286046999.9,N
1639465476.0,286046999.9,N
1639465495.8,286047002.5,N
1639465515.6,286047001.9,N
1639465535.5,286046999.7,N
1639465555.3,286047000.5,N
1639465575.1,286047000.1,N
1639465595.9,286047002.8,N
1639465615.7,286047002.5,N
1639465635.6,286047002.5,N
1639465655.4,286047002.8,N
1639465675.2,286047002.3,N
1639465695.1,286046998.1,N
1639465696.0,286046998.1,N
1639465715.8,286047000.5,N
1639465735.6,286046999.7,N
1639465755.5,286047002.8,N
1639465775.3,286047000.8,N
1639465795.2,286047002.6,N
1639465815.9,286047000.5,N
1639465835.7,286047001.9,N
1639465855.6,286047001.8,N
1639465875.4,286047004.1,N
1639465895.2,286047003.0,N
1639465915.1,286047005.7,Y
1639465916.0,286047005.7,P
1639465935.8,286047003.5,N
1639465955.7,286047001.3,N
1639465975.5,286047002.5,N
1639465995.4,286047001.6,N
1639466015.2,286047001.9,N
1639466035.0,286047002.1,N
1639466035.9,286047002.1,N
1639466055.8,286047001.3,N
1639466075.6,286047003.9,Y
1639466095.4,286047000.9,P
1639466115.3,286047000.5,N
1639466135.1,286047000.6,N
1639466155.9,286047000.3,N
1639466175.7,286047002.1,N
1639466195.5,286047002.8,Y
1639466215.4,286047001.0,P
1639466235.2,286046998.5,P
1639466255.1,286046998.9,N
1639466256.0,286046998.9,N
1639466275.8,286046998.7,N
1639466295.6,286046998.9,N
1639466315.5,286047000.8,N
1639466335.3,286046998.3,N
1639466355.1,286046998.9,N
1639466375.9,286047000.7,N
1639466395.7,286047000.6,N
1639466415.6,286046999.5,N
1639466435.4,286046997.9,N
1639466455.2,286046998.0,N
1639466475.1,286046997.9,N
1639466476.0,286046997.9,N
1639466495.8,286046997.3,N
1639466515.6,286046996.6,N
1639466535.5,286046999.6,N
1639466555.3,286046999.2,N
1639466575.2,286046996.6,N
1639466595.0,286046999.5,N
1639466595.9,286046999.5,N
1639466615.8,286046996.9,N
1639466635.6,286046998.6,N
1639466655.4,286046997.5,N
1639466675.3,286046997.6,N
1639466695.1,286046997.5,N
1639466715.9,286046993.4,Y
1639466735.7,286046996.6,P
1639466755.5,286046999.3,N
1639466775.4,286046999.1,N
1639466795.2,286046999.3,N
1639466815.0,286047011.9,Y
1639466815.9,286046996.6,P
1639466835.8,286047000.3,N
1639466855.6,286047000.7,N
1639466875.5,286047000.6,N
1639466895.3,286047000.0,N
1639466915.1,286047001.9,N
1639466935.9,286047003.4,N
1639466955.7,286047004.3,N
1639466975.6,286047003.8,N
1639466995.4,286047003.2,N
1639467015.2,286047005.6,N
1639467035.1,286047003.3,N
1639467036.0,286047003.3,N
1639467055.8,286047005.9,N
1639467075.7,286047003.9,N
1639467095.5,286047003.3,N
1639467115.3,286047005.9,N
1639467135.2,286047003.6,N
1639467155.0,286047001.7,N
1639467155.9,286047001.7,N
1639467175.8,286047002.4,N
1639467195.6,286047002.2,N
1639467215.4,286047004.3,N
1639467235.3,286047001.3,N
1639467255.1,286047004.3,N
1639467275.8,286047002.0,N
1639467295.7,286047001.6,N
1639467315.5,286047002.1,N
1639467335.3,286047002.7,N
1639467355.2,286047000.8,N
1639467375.0,286047000.9,N
1639467375.9,286047000.9,N
1639467395.8,286046999.9,N
1639467415.6,286047000.1,N
1639467435.4,286047002.3,N
1639467455.3,286047001.6,N
1639467475.1,286047001.3,N
1639467495.9,286047004.4,N
1639467515.7,286047001.4,N
1639467535.5,286047004.3,N
1639467555.4,286047001.5,N
1639467575.2,286047001.9,N
1639467595.0,286047003.7,N
1639467595.9,286047003.7,N
1639467615.8,286047003.2,N
1639467635.6,286047005.1,Y
1639467655.5,286047002.6,P
1639467675.3,286047000.1,N
1639467695.1,286046999.1,N
1639467715.9,286046998.3,N
1639467735.7,286046998.4,N
1639467755.5,286046997.1,N
1639467775.4,286046996.5,N
1639467795.2,286046998.8,N
1639467815.1,286046998.1,N
1639467816.0,286046998.1,N
1639467835.8,286046999.4,N
1639467855.6,286046998.3,N
1639467875.5,286047000.0,N
1639467895.3,286047000.0,N
1639467915.2,286047001.2,N
1639467935.9,286046998.8,N
1639467955.7,286046998.4,N
1639467975.6,286046997.4,N
1639467995.4,286046997.2,N
1639468015.2,286046996.9,N
1639468035.1,286046996.5,N
1639468036.0,286046996.5,N
1639468055.8,286046998.8,N
1639468075.9,286046998.5,N
1639468095.7,286047000.4,N
1639468115.6,286047000.8,N
1639468135.4,286046998.6,N
1639468155.3,286046998.6,N
1639468175.1,286046998.2,N
1639468176.0,286046998.2,N
1639468195.8,286046998.6,N
1639468215.7,286046998.5,N
1639468235.5,286047000.3,N
1639468255.3,286046998.5,N
1639468275.2,286047000.3,N
1639468295.0,286047000.0,N
1639468295.9,286047000.0,N
1639468315.8,286047002.8,N
1639468335.6,286047000.1,N
1639468355.4,286047000.8,N
1639468375.3,286046998.6,N
1639468395.1,286047001.1,N
1639468415.9,286047000.1,N
1639468435.7,286047000.7,N
1639468455.5,286047000.2,N
1639468475.4,286046999.7,N
1639468495.2,286047000.2,N
1639468515.0,286047002.4,N
1639468515.9,286047002.4,N
1639468535.8,286047002.2,N
1639468555.6,286047001.4,N
1639468575.5,286047002.1,N
1639468595.3,286046999.8,N
1639468615.1,286047002.7,N
1639468635.9,286047000.5,N
1639468655.7,286046999.2,N
1639468675.6,286046999.4,N
1639468695.4,286046998.6,N
1639468715.2,286046998.4,N
1639468735.1,286046999.0,N
1639468736.0,286046999.0,N
1639468755.8,286046999.4,N
1639468775.6,286046996.5,N
1639468795.5,286046997.8,N
